This is the latest recevied weather packets stored in our database for station/object KB9GXK. If no packets are shown the sender has not sent any weather packets the latest 10 day(s).
| Time | Temp. | Humidity | Pressure | Rain* | Wind** | Luminosity | Snow |
|---|---|---|---|---|---|---|---|
| 1777297591 | 9.44° C | 86% | 1011.7 hPa | 0 mm | - | 39 W/m² | - |
| 1777297287 | 9.44° C | 86% | 1011.6 hPa | 0 mm | - | 41 W/m² | - |
| 1777296985 | 9.44° C | 86% | 1011.7 hPa | 0 mm | - | 59 W/m² | - |
| 1777296681 | 9.44° C | 86% | 1011.7 hPa | 0 mm | - | 65 W/m² | - |
| 1777296368 | 9.44° C | 86% | 1011.8 hPa | 0 mm | - | 59 W/m² | - |
| 1777296062 | 9.44° C | 86% | 1011.8 hPa | 0 mm | - | 43 W/m² | - |
| 1777295760 | 9.44° C | 86% | 1012.1 hPa | 0 mm | - | 57 W/m² | - |
| 1777295458 | 9.44° C | 86% | 1011.9 hPa | 0 mm | - | 77 W/m² | - |
| 1777295155 | 9.44° C | 86% | 1012.3 hPa | 0 mm | - | 88 W/m² | - |
| 1777294852 | 9.44° C | 87% | 1012.2 hPa | 0 mm | - | 101 W/m² | - |
| 1777294546 | 8.89° C | 87% | 1012.5 hPa | 0 mm | - | 99 W/m² | - |
| 1777294243 | 8.89° C | 87% | 1012.6 hPa | 0 mm | - | 91 W/m² | - |
| 1777293940 | 8.89° C | 87% | 1012.8 hPa | 0 mm | - | 78 W/m² | - |
| 1777293636 | 8.89° C | 87% | 1012.8 hPa | 0 mm | - | 66 W/m² | - |
| 1777293331 | 8.89° C | 87% | 1012.8 hPa | 0 mm | - | 58 W/m² | - |
| 1777293027 | 8.89° C | 87% | 1013.2 hPa | 0 mm | - | 63 W/m² | - |
| 1777292726 | 8.89° C | 87% | 1013 hPa | 0 mm | - | 102 W/m² | - |
| 1777292422 | 8.89° C | 88% | 1013.1 hPa | 0 mm | - | 121 W/m² | - |
| 1777292120 | 8.33° C | 88% | 1013.4 hPa | 0 mm | - | 93 W/m² | - |
| 1777291815 | 8.33° C | 89% | 1013.5 hPa | 0 mm | - | 66 W/m² | - |
| 1777291512 | 8.33° C | 89% | 1013.7 hPa | 0 mm | - | 63 W/m² | - |
| 1777291209 | 8.33° C | 89% | 1013.5 hPa | 0 mm | - | 59 W/m² | - |
| 1777290906 | 8.33° C | 89% | 1013.6 hPa | 0 mm | - | 46 W/m² | - |
| 1777290603 | 7.78° C | 89% | 1013.7 hPa | 0 mm | - | 36 W/m² | - |
| 1777290299 | 7.78° C | 90% | 1013.7 hPa | 0 mm | - | 36 W/m² | - |
* Rain latest hour (hover to see other rain measurements)
** Current wind speed in m/s (hover to see current wind gust speed)